• In Latvia
  • List of Countries
  • For 7 days
  • Water Temperature
  • Satellite Maps
  • Weather Map
  • Weather Widgets
  • user-avatar
    Login

    Hourly Weather Malanje

    Today, 11 December, Monday

    Time Temperature Precipitation Wind Pressure Humidity
    00:00 +20°C° 0.1 mm 1 mps 665 mmHg 98%
    01:00 +20°C° 0 mm 1 mps 665 mmHg 99%
    02:00 +20°C° 0 mm 1 mps 665 mmHg 99%
    03:00 +20°C° 0 mm 1 mps 665 mmHg 99%
    04:00 +20°C° 0 mm 1 mps 664 mmHg 99%
    05:00 +20°C° 0 mm 1 mps 665 mmHg 98%
    06:00 +20°C° 0 mm 1 mps 665 mmHg 98%
    07:00 +21°C° 0 mm 1 mps 666 mmHg 97%
    08:00 +21°C° 0 mm 1 mps 666 mmHg 94%
    09:00 +22°C° 0 mm 1 mps 666 mmHg 91%
    10:00 +22°C° 0 mm 1 mps 666 mmHg 88%
    11:00 +24°C° 0.2 mm 2 mps 666 mmHg 82%
    12:00 +25°C° 0.2 mm 2 mps 666 mmHg 75%
    13:00 +27°C° 0.2 mm 2 mps 665 mmHg 68%
    14:00 +26°C° 0.5 mm 2 mps 665 mmHg 73%
    15:00 +26°C° 0.5 mm 2 mps 664 mmHg 77%
    16:00 +26°C° 0.5 mm 2 mps 664 mmHg 81%
    17:00 +24°C° 0.2 mm 2 mps 664 mmHg 85%
    18:00 +23°C° 0.2 mm 2 mps 664 mmHg 90%
    19:00 +21°C° 0.2 mm 1 mps 664 mmHg 94%
    20:00 +21°C° 0 mm 1 mps 664 mmHg 95%
    21:00 +20°C° 0 mm 1 mps 664 mmHg 96%
    22:00 +20°C° 0 mm 1 mps 665 mmHg 97%
    23:00 +20°C° 0 mm 1 mps 665 mmHg 97%

    Tomorrow, 12 December, Tuesday

    Time Temperature Precipitation Wind Pressure Humidity
    00:00 +19°C° 0 mm 1 mps 665 mmHg 98%
    01:00 +19°C° 0 mm 1 mps 664 mmHg 98%
    02:00 +19°C° 0 mm 1 mps 664 mmHg 98%
    03:00 +19°C° 0 mm 1 mps 664 mmHg 98%
    04:00 +19°C° 0 mm 1 mps 664 mmHg 99%
    05:00 +20°C° 0 mm 1 mps 664 mmHg 98%
    06:00 +20°C° 0 mm 1 mps 664 mmHg 97%
    07:00 +21°C° 0 mm 1 mps 665 mmHg 96%
    08:00 +21°C° 0.2 mm 2 mps 665 mmHg 90%
    09:00 +23°C° 0.2 mm 2 mps 666 mmHg 85%
    10:00 +25°C° 0.2 mm 2 mps 666 mmHg 79%
    11:00 +25°C° 0.6 mm 2 mps 666 mmHg 78%
    12:00 +26°C° 0.6 mm 3 mps 665 mmHg 76%
    13:00 +27°C° 0.6 mm 3 mps 665 mmHg 74%
    14:00 +26°C° 0.5 mm 3 mps 664 mmHg 77%
    15:00 +26°C° 0.5 mm 2 mps 664 mmHg 80%
    16:00 +25°C° 0.5 mm 2 mps 663 mmHg 83%
    17:00 +24°C° 0.3 mm 2 mps 663 mmHg 87%
    18:00 +23°C° 0.3 mm 2 mps 664 mmHg 91%
    19:00 +21°C° 0.3 mm 1 mps 664 mmHg 95%
    20:00 +21°C° 0 mm 1 mps 664 mmHg 95%
    21:00 +21°C° 0 mm 1 mps 665 mmHg 95%
    22:00 +20°C° 0 mm 1 mps 665 mmHg 96%
    23:00 +20°C° 0 mm 1 mps 665 mmHg 96%

    Day after tomorrow, 13 December, Wednesday

    Time Temperature Precipitation Wind Pressure Humidity
    00:00 +20°C° 0 mm 1 mps 665 mmHg 96%
    01:00 +19°C° 0 mm 1 mps 664 mmHg 96%
    02:00 +19°C° 0 mm 1 mps 664 mmHg 96%
    03:00 +19°C° 0 mm 1 mps 664 mmHg 96%
    04:00 +19°C° 0 mm 1 mps 664 mmHg 96%
    05:00 +19°C° 0 mm 1 mps 664 mmHg 96%
    06:00 +20°C° 0 mm 1 mps 665 mmHg 95%
    07:00 +20°C° 0 mm 1 mps 665 mmHg 95%
    08:00 +21°C° 0.1 mm 1 mps 666 mmHg 91%
    09:00 +23°C° 0.1 mm 1 mps 666 mmHg 87%
    10:00 +24°C° 0.1 mm 1 mps 666 mmHg 83%
    11:00 +25°C° 0.4 mm 2 mps 666 mmHg 78%
    12:00 +26°C° 0.4 mm 2 mps 665 mmHg 73%
    13:00 +28°C° 0.4 mm 2 mps 665 mmHg 68%
    14:00 +27°C° 1.3 mm 2 mps 665 mmHg 73%
    15:00 +27°C° 1.3 mm 1 mps 664 mmHg 78%
    16:00 +26°C° 1.3 mm 1 mps 664 mmHg 82%
    17:00 +24°C° 0.8 mm 1 mps 664 mmHg 86%
    18:00 +23°C° 0.8 mm 1 mps 664 mmHg 89%
    19:00 +21°C° 0.8 mm 1 mps 665 mmHg 93%
    20:00 +21°C° 0.2 mm 1 mps 665 mmHg 93%
    21:00 +21°C° 0.2 mm 1 mps 666 mmHg 94%
    22:00 +21°C° 0.2 mm 1 mps 666 mmHg 94%
    23:00 +20°C° 0 mm 1 mps 666 mmHg 94%

    14 December, Thursday

    Time Temperature Precipitation Wind Pressure Humidity
    00:00 +20°C° 0 mm 1 mps 665 mmHg 94%
    01:00 +20°C° 0 mm 1 mps 665 mmHg 95%
    02:00 +20°C° 0 mm 1 mps 665 mmHg 95%
    03:00 +20°C° 0 mm 1 mps 664 mmHg 95%
    04:00 +20°C° 0 mm 1 mps 664 mmHg 95%
    05:00 +20°C° 0 mm 1 mps 665 mmHg 95%
    06:00 +20°C° 0 mm 1 mps 665 mmHg 94%
    07:00 +21°C° 0 mm 1 mps 665 mmHg 94%
    08:00 +22°C° 0 mm 1 mps 666 mmHg 90%
    09:00 +23°C° 0 mm 1 mps 666 mmHg 85%
    10:00 +24°C° 0 mm 1 mps 667 mmHg 81%
    11:00 +25°C° 0.3 mm 1 mps 666 mmHg 78%
    12:00 +26°C° 0.3 mm 2 mps 665 mmHg 75%
    13:00 +27°C° 0.3 mm 2 mps 665 mmHg 71%
    14:00 +26°C° 1.2 mm 2 mps 664 mmHg 77%
    15:00 +26°C° 1.2 mm 2 mps 664 mmHg 83%
    16:00 +25°C° 1.2 mm 2 mps 663 mmHg 89%
    17:00 +24°C° 1.3 mm 1 mps 664 mmHg 91%
    18:00 +22°C° 1.3 mm 1 mps 664 mmHg 93%
    19:00 +21°C° 1.3 mm 1 mps 664 mmHg 94%
    20:00 +21°C° 0.1 mm 1 mps 665 mmHg 95%
    21:00 +21°C° 0.1 mm 1 mps 665 mmHg 95%
    22:00 +20°C° 0.1 mm 1 mps 665 mmHg 96%
    23:00 +20°C° 0 mm 1 mps 665 mmHg 96%

    15 December, Friday

    Time Temperature Precipitation Wind Pressure Humidity
    00:00 +20°C° 0 mm 1 mps 664 mmHg 97%
    01:00 +20°C° 0 mm 1 mps 664 mmHg 97%
    02:00 +20°C° 0 mm 1 mps 664 mmHg 98%
    03:00 +20°C° 0 mm 1 mps 664 mmHg 98%
    04:00 +20°C° 0 mm 1 mps 663 mmHg 98%
    05:00 +20°C° 0 mm 1 mps 664 mmHg 98%
    06:00 +21°C° 0 mm 1 mps 665 mmHg 97%
    07:00 +21°C° 0 mm 1 mps 665 mmHg 97%
    08:00 +22°C° 0 mm 1 mps 666 mmHg 92%
    09:00 +24°C° 0 mm 1 mps 666 mmHg 87%
    10:00 +25°C° 0 mm 1 mps 667 mmHg 82%
    11:00 +26°C° 1.1 mm 1 mps 666 mmHg 81%
    12:00 +27°C° 1.1 mm 1 mps 665 mmHg 81%
    13:00 +28°C° 1.1 mm 1 mps 665 mmHg 80%
    14:00 +27°C° 2.1 mm 1 mps 664 mmHg 82%
    15:00 +26°C° 2.1 mm 1 mps 664 mmHg 84%
    16:00 +26°C° 2.1 mm 1 mps 663 mmHg 86%
    17:00 +24°C° 0.6 mm 1 mps 664 mmHg 88%
    18:00 +23°C° 0.6 mm 1 mps 664 mmHg 91%
    19:00 +22°C° 0.6 mm 1 mps 664 mmHg 93%
    20:00 +21°C° 0.1 mm 1 mps 664 mmHg 94%
    21:00 +19°C° 0.1 mm 0 mps 665 mmHg 94%
    22:00 +19°C° 0.1 mm 0 mps 665 mmHg 94%
    23:00 +21°C° 0.1 mm 1 mps 664 mmHg 95%

    16 December, Saturday

    Time Temperature Precipitation Wind Pressure Humidity
    00:00 +20°C° 0.1 mm 1 mps 664 mmHg 96%
    01:00 +20°C° 0.1 mm 1 mps 664 mmHg 96%
    02:00 +20°C° 0.3 mm 1 mps 664 mmHg 97%
    03:00 +20°C° 0.3 mm 1 mps 664 mmHg 98%
    04:00 +20°C° 0.3 mm 1 mps 664 mmHg 99%
    05:00 +20°C° 0.8 mm 1 mps 664 mmHg 98%
    06:00 +20°C° 0.8 mm 2 mps 665 mmHg 98%
    07:00 +20°C° 0.8 mm 2 mps 665 mmHg 97%
    08:00 +21°C° 1 mm 1 mps 665 mmHg 97%
    09:00 +21°C° 1 mm 1 mps 665 mmHg 96%
    10:00 +22°C° 1 mm 1 mps 666 mmHg 95%
    11:00 +22°C° 0.9 mm 1 mps 665 mmHg 95%
    12:00 +21°C° 0.9 mm 1 mps 664 mmHg 95%
    13:00 +21°C° 0.9 mm 1 mps 664 mmHg 95%
    14:00 +22°C° 0.1 mm 1 mps 664 mmHg 95%
    15:00 +22°C° 0.1 mm 1 mps 663 mmHg 94%
    16:00 +22°C° 0.1 mm 1 mps 663 mmHg 93%
    17:00 +21°C° 0 mm 1 mps 664 mmHg 94%
    18:00 +21°C° 0 mm 1 mps 664 mmHg 95%
    19:00 +20°C° 0 mm 1 mps 664 mmHg 95%
    20:00 +20°C° 0 mm 1 mps 665 mmHg 95%
    21:00 +18°C° 0 mm 0 mps 665 mmHg 96%
    22:00 +17°C° 0 mm 0 mps 665 mmHg 96%
    23:00 +17°C° 0 mm 0 mps 665 mmHg 96%
    Show more